Location: Caltech
(34.1382°N, 118.1253°W)
Time: 21:37:45
(UTC-07:00)

Iridium 95 - Visible Passes

Search period start: 20 August 2017 00:00
Search period end: 30 August 2017 00:00
Orbit: 776 x 778 km, 86.4° (Epoch: 20 August)

Date Brightness Start Highest point End Pass type
(mag) Time Alt. Az. Time Alt. Az. Time Alt. Az.
20 Aug 6.3 20:39:50 10° SSW 20:44:55 54° W 20:50:03 10° N visible
21 Aug 5.5 20:06:12 10° S 20:11:24 77° E 20:16:37 10° N visible
22 Aug 8.2 21:15:09 10° SW 21:18:48 19° W 21:22:28 10° NW visible
23 Aug 7.2 20:40:19 10° SSW 20:45:05 36° W 20:49:52 10° NNW visible
24 Aug 5.9 20:06:17 10° S 20:11:29 71° W 20:16:42 10° N visible
25 Aug 8.6 21:16:52 10° WSW 21:19:04 13° WNW 21:21:18 10° NW visible
26 Aug 7.9 20:41:04 10° SW 20:45:16 25° W 20:49:30 10° NNW visible
27 Aug 6.7 20:06:36 10° SSW 20:11:36 47° W 20:16:38 10° N visible
29 Aug 8.5 20:42:16 10° WSW 20:45:31 17° WNW 20:48:47 10° NW visible
